Flag for Greenland Weather past 2 weeks in Ittoqqortoormiit, Greenland

Now
43 °F

Sunny.


Feels Like: 36 °F
Forecast: 29 / 45 °F
Wind: 15 mph from East

Location: Scoresbysund

Current Time: Jul 24, 2014 at 7:18:24 AM

Latest Report: Jul 24, 2014 at 6:00 AM


Visibility: 25 mi

Pressure: 29.83 "Hg

Humidity: 78%

Dew point: 37 °F

Location of IttoqqortoormiitLocation

Historic Weather in Ittoqqortoormiit — Graph

°F

Ittoqqortoormiit temperature yesterday

Maximum temperature yesterday: 52 °F (at 6:00 PM)
Minimum temperature yesterday: 45 °F (at 8:00 PM)
Average temperature yesterday: 48 °F

Past Weeks' High & Low Weather Summary

 TemperatureHumidityPressure
High56 °F (Jul 20, 3:00 PM)100% (Jul 15, 6:00 AM)30.13 "Hg (Jul 15, 6:00 AM)
Low35 °F (Jul 17, 11:00 PM)40% (Jul 20, 7:00 PM)29.59 "Hg (Jul 16, 4:00 AM)
Average43 °F80%29.87 "Hg
* Reported Jul 9 8:00 AM — Jul 24 6:00 AM, Ittoqqortoormiit, Weather by CustomWeather, © 2014

Note: Actual official high and low records may vary slightly from our data, if they occured in-between our weather recording intervals... More about our weather records

Advertising

Ittoqqortoormiit weather history for previous 24 hours

 ConditionsComfort  
Time TempWeatherWind HumidityBarometerVisibility
6:00 AM
Jul 24
43 °FSunny.15 mph78%29.83 "Hg25 mi
5:00 AM46 °FSunny.7 mph72%29.81 "Hg31 mi
4:00 AM42 °FSunny.23 mph83%29.80 "Hg31 mi
3:00 AM43 °FSunny.22 mph81%29.79 "Hg22 mi
2:00 AM42 °FSunny.14 mph83%29.80 "Hg25 mi
1:00 AM41 °FSunny.24 mph85%29.78 "Hg22 mi
12:00 AM48 °FSunny.17 mph68%29.76 "Hg31 mi
11:00 PM
Jul 23
47 °FSunny.17 mph72%29.75 "Hg25 mi
10:00 PM45 °FSunny.23 mph81%29.75 "Hg16 mi
9:00 PM47 °FSunny.21 mph74%29.74 "Hg17 mi
8:00 PM45 °FSunny.29 mph79%29.72 "Hg15 mi
7:00 PM48 °FSunny.26 mph73%29.72 "Hg16 mi
6:00 PM52 °FSunny.16 mph61%29.73 "Hg22 mi
5:00 PM48 °FSunny.22 mph68%29.74 "Hg18 mi
3:00 PM48 °FSunny.16 mph69%29.77 "Hg19 mi
2:00 PM50 °FSunny.14 mph62%29.78 "Hg22 mi
12:00 PM51 °FPassing clouds.15 mph62%29.80 "Hg31 mi
Weather by CustomWeather, © 2014

See weather overviewHow to use our weather pages